Location: Bay Harbour
(38.2612°N, 75.2555°W)
Time: 00:44:59
(UTC+00:00)

Cosmos 1689 Rocket - Pass Details

Date: 29 October 2020
Orbit: 360 x 374 km, 97.5° (Epoch: 02 December)

Event Time Altitude Azimuth Distance (km) Brightness Sun altitude
Rises 22:55:16 0° 16° (NNE) 2,201 5.6 -10.6°
Reaches altitude 10° 22:57:14 10° 21° (NNE) 1,349 4.5 -10.9°
Maximum altitude 23:00:04 56° 101° (E) 436 2.0 -11.5°
Drops below altitude 10° 23:02:51 10° 181° (S) 1,337 4.9 -12.0°
Sets 23:04:48 0° 185° (S) 2,179 6.1 -12.4°
